Starlink 11233

operational
NORAD ID: 61061 Int'l Des: 2024-164 Owner: SPXS Country: US Constellation: starlink
LEOCIRCULAR

Starlink 11233について

説明を読み込み中...

リアルタイム位置

3D地球を読み込み中...

次回通過

高度履歴

Altitude vs Time

uPlot chart will show altitude changes over time

軌道要素

1 61061U 24164M 25258.83159667 .00002575 00000-0 26074-4 0 9990
2 61061 53.1586 93.3882 0000924 80.9052 279.2071 15.69736712 57957
Epoch: Sep 15, 2025 • Age: 25 hours

現在のステータス

高度 359.6 km
速度 7.70 km/s
衛星直下点 11.14°N, 153.77°E
打ち上げ日 Sep 13, 2024
運用期間 1 years
タイプ internet

技術仕様

分類 Payload
質量 960.00 kg
乾燥質量 910.00 kg
総質量 960.00 kg
長さ 0.30 m
直径 4.10 m
スパン 29.00 m
形状 Box + pan
製造者 SPXS
バスタイプ Starlink V2MD
フェーズステータス In Orbit
所有者/国 SPXS/US

大規模コンステレーション

Loading constellations...